Flag for Canada Weather past 2 weeks in Cambridge, Ontario, Canada

Now
66 °F

Mostly cloudy.


Feels Like: 66 °F
Forecast: 58 / 78 °F
Wind: 6 mph from Northeast

Location: Waterloo Well

Current Time: Aug 29, 2015 at 10:07:05 PM

Latest Report: Aug 29, 2015 at 9:00 PM


Visibility: 8 mi

Pressure: 30.09 "Hg

Humidity: 88%

Dew point: 63 °F

Location of CambridgeLocation

Historic Weather in Cambridge — Graph

°F

Cambridge temperature yesterday

Maximum temperature yesterday: 73 °F (at 4:00 PM)
Minimum temperature yesterday: 45 °F (at 3:00 AM)
Average temperature yesterday: 57 °F

Past Weeks' High & Low Weather Summary

 TemperatureHumidityPressure
High86 °F (Aug 16, 4:00 PM)100% (Aug 15, 2:00 AM)30.24 "Hg (Aug 15, 2:00 AM)
Low45 °F (Aug 28, 3:00 AM)43% (Aug 24, 5:00 PM)29.69 "Hg (Aug 20, 6:00 AM)
Average66 °F81%30.02 "Hg
* Reported Aug 14 9:00 PM — Aug 29 9:00 PM, Cambridge, Weather by CustomWeather, © 2015

Note: Actual official high and low records may vary slightly from our data, if they occured in-between our weather recording intervals... More about our weather records

Advertising

Cambridge weather history for previous 24 hours

 ConditionsComfort  
Time TempWeatherWind HumidityBarometerVisibility
9:00 PM
Sat, Aug 29
66 °FMostly cloudy.6 mph88%30.09 "Hg8 mi
8:55 PM64 °FFog.5 mph94%30.10 "Hg6 mi
8:00 PM66 °FFog.2 mph94%30.09 "Hg4 mi
7:00 PM66 °FMostly cloudy.2 mph94%30.09 "Hg7 mi
6:59 PM66 °FMostly cloudy.2 mph94%30.09 "Hg7 mi
6:00 PM70 °FLight rain. Overcast.5 mph83%30.10 "Hg9 mi
5:59 PM70 °FLight rain. Overcast.6 mph83%30.11 "Hg9 mi
5:00 PM72 °FMore clouds than sun.3 mph73%30.10 "Hg9 mi
4:00 PM73 °FMostly cloudy.2 mph61%30.10 "Hg9 mi
3:00 PM75 °FPartly sunny.2 mph61%30.11 "Hg9 mi
2:00 PM72 °FOvercast.2 mph65%30.14 "Hg9 mi
1:00 PM73 °FPartly sunny.2 mph65%30.15 "Hg9 mi
12:00 PM73 °FBroken clouds.7 mph61%30.16 "Hg9 mi
11:00 AM70 °FScattered clouds.6 mph78%30.17 "Hg9 mi
10:04 AM63 °FFog.No wind94%30.17 "Hg6 mi
9:00 AM59 °FFog.2 mph100%30.17 "Hg4 mi
8:00 AM57 °FFog.2 mph94%30.17 "Hg3 mi
7:00 AM54 °FFog.No wind100%30.16 "Hg2 mi
6:50 AM54 °FFog.No wind100%30.15 "Hg2 mi
6:00 AM54 °FFog.2 mph100%30.14 "Hg2 mi
5:04 AM52 °FFog.No wind100%30.15 "Hg2 mi
5:01 AM54 °FFog.2 mph94%30.15 "Hg2 mi
4:02 AM54 °FLight rain. Fog.No wind100%30.16 "Hg1 mi
3:00 AM55 °FFog.2 mph94%30.16 "Hg4 mi
2:56 AM55 °FFog.2 mph100%30.16 "Hg5 mi
2:00 AM55 °FPassing clouds.2 mph94%30.16 "Hg7 mi
1:00 AM55 °FPassing clouds.No wind94%30.18 "Hg8 mi
12:00 AM55 °FPassing clouds.No wind100%30.17 "Hg9 mi
11:00 PM
Fri, Aug 28
55 °FPassing clouds.2 mph94%30.17 "Hg9 mi
10:00 PM57 °FPassing clouds.2 mph94%30.17 "Hg9 mi
Weather by CustomWeather, © 2015

See weather overviewHow to use our weather pages